N968DT KCOS-KCOS

Flight info

Callsign N968DT
Flight time 0h 8m
Altitude VFR/085
Route /E/
Aircraft DA62/L-VGD/C

Departure

Time 2026-04-21 02:04
Airport City of Colorado Springs Municipal Airport (KCOS)

Arrival

Time 2026-04-21 02:13
Airport City of Colorado Springs Municipal Airport (KCOS)
Time Latitude Longitude Altitude Speed Heading
2026-04-21 02:04 38.84560 -104.36948 7739 ft 95 kts 112°
2026-04-21 02:04 38.84457 -104.36134 7936 ft 94 kts 98°
2026-04-21 02:04 38.83935 -104.35391 8150 ft 101 kts 157°
2026-04-21 02:05 38.83077 -104.35634 8352 ft 111 kts 214°
2026-04-21 02:05 38.82647 -104.36602 8558 ft 112 kts 257°
2026-04-21 02:05 38.82567 -104.37737 8592 ft 116 kts 263°
2026-04-21 02:05 38.82588 -104.38869 8645 ft 116 kts 277°
2026-04-21 02:06 38.82704 -104.40002 8556 ft 136 kts 276°
2026-04-21 02:06 38.82842 -104.41539 8595 ft 143 kts 276°
2026-04-21 02:06 38.83024 -104.43059 8636 ft 150 kts 278°
2026-04-21 02:06 38.83130 -104.44544 8672 ft 152 kts 269°
2026-04-21 02:07 38.82914 -104.45994 8768 ft 149 kts 257°
2026-04-21 02:07 38.82664 -104.47327 8732 ft 153 kts 253°
2026-04-21 02:07 38.82386 -104.48853 8722 ft 154 kts 257°
2026-04-21 02:07 38.82094 -104.50515 8704 ft 154 kts 256°
2026-04-21 02:08 38.81886 -104.52016 8713 ft 153 kts 268°
2026-04-21 02:08 38.82142 -104.53436 8708 ft 151 kts 301°
2026-04-21 02:08 38.82782 -104.54614 8663 ft 153 kts 307°
2026-04-21 02:08 38.83403 -104.55808 8612 ft 156 kts 306°
2026-04-21 02:09 38.84101 -104.57239 8581 ft 156 kts 303°
2026-04-21 02:09 38.84647 -104.58694 8528 ft 158 kts 290°
2026-04-21 02:09 38.84842 -104.60216 8445 ft 160 kts 271°
2026-04-21 02:09 38.84824 -104.61732 8370 ft 160 kts 271°
2026-04-21 02:10 38.84806 -104.63200 8274 ft 162 kts 269°
2026-04-21 02:10 38.84762 -104.64656 8309 ft 134 kts 268°
2026-04-21 02:10 38.84708 -104.65861 8175 ft 106 kts 270°
2026-04-21 02:10 38.84673 -104.66931 7948 ft 105 kts 269°
2026-04-21 02:11 38.84654 -104.67963 7681 ft 106 kts 272°
2026-04-21 02:11 38.84631 -104.68967 7436 ft 99 kts 269°
2026-04-21 02:11 38.84589 -104.69902 7208 ft 96 kts 268°
2026-04-21 02:11 38.84437 -104.70740 7035 ft 100 kts 245°
2026-04-21 02:12 38.83927 -104.71465 6752 ft 93 kts 198°
2026-04-21 02:12 38.83226 -104.71600 6472 ft 81 kts 176°
2026-04-21 02:12 38.82598 -104.71599 6269 ft 78 kts 173°
2026-04-21 02:12 38.82000 -104.71592 6152 ft 68 kts 177°
2026-04-21 02:13 38.81557 -104.71588 6130 ft 49 kts 180°
2026-04-21 02:13 38.81319 -104.71593 6119 ft 22 kts 184°
2026-04-21 02:13 38.81261 -104.71706 6116 ft 5 kts 269°
2026-04-21 02:13 38.81261 -104.71711 6116 ft 0 kts 269°
2026-04-21 02:14 38.81261 -104.71748 6116 ft 9 kts 269°
2026-04-21 02:14 38.81261 -104.71892 6114 ft 18 kts 269°
2026-04-21 02:14 38.81196 -104.71952 6111 ft 11 kts 180°
2026-04-21 02:14 38.81119 -104.71953 6108 ft 10 kts 180°
2026-04-21 02:15 38.81038 -104.71953 6103 ft 10 kts 180°
2026-04-21 02:15 38.80954 -104.71953 6100 ft 9 kts 180°
2026-04-21 02:15 38.80888 -104.71954 6097 ft 7 kts 180°
2026-04-21 02:15 38.80835 -104.71954 6095 ft 6 kts 181°
2026-04-21 02:16 38.80790 -104.71954 6094 ft 5 kts 180°
2026-04-21 02:16 38.80756 -104.71956 6092 ft 4 kts 189°
2026-04-21 02:16 38.80725 -104.71976 6091 ft 6 kts 236°
2026-04-21 02:16 38.80732 -104.72029 6090 ft 0 kts 334°